World > North America > United States > Nevada

Unionville, Nevada Regional Weather

Lat: 40.44N, Lon: 118.12W
Wx Zone: NVZ004
Feedback

Unionville, NV Regional Weather

Expires:201907231400;;508759
ASUS45 KREV 231310
RWRNV 
NEVADA REGIONAL WEATHER ROUNDUP
NATIONAL WEATHER SERVICE RENO NV
600 AM PDT TUE JUL 23 2019

NOTE: "FAIR" INDICATES FEW OR NO CLOUDS BELOW 12,000 FEET WITH NO
SIGNIFICANT WEATHER AND/OR OBSTRUCTIONS TO VISIBILITY.


NVZ001-003-004-231400-
WESTERN NEVADA
  
CITY           SKY/WX    TMP DP  RH WIND       PRES   REMARKS
RENO           PTCLDY    69  46  43 W5        30.19R                  
CARSON CITY    FAIR      63  46  55 CALM      30.20R                  
MINDEN         FAIR      54  46  76 CALM      30.22R                  
SLIDE MTN        N/A     54  41  62 W20         N/A                   
FALLON         PTCLDY    66  50  56 CALM      30.13R                  
LOVELOCK       MOCLDY    64  47  53 E6        30.13R                  
HAWTHORNE      CLEAR     72  45  37 SW5       30.17R                  
$$


SKY/WX - Weather  TMP - Temperature  DP - Dew Point  RH - Relative Humidity
WIND - Wind Direction/Speed PRES - Barometric Pressure VSB - Visibility
WCI - Wind Chill Index E13G22 Wind - East Wind 13 mph/Gusts of 22 mph